RH
88 80 90 94 93 92 90 94 96 84 85 82 96 95 91 97 98 89 84 80 78 88 88 88 88 89 88 93 97 91 83 77 67 77 78 77 88 80 75 71 78 92 95
80 82 87 93 93 90 89 94 73 73 87 96 97 87 94 99 93 88 82 73 81 83 83 82 81 82 70 70 78 70 74 81 79 81 81 85 85 76 72 76 80 92 97
78 80 86 89 89 82 76 73 78 94 93 83 91 100 100 95 90 87 86 84 85 87 87 87 87 85 82 52 31 29 40 68 78 60 64 89 87 82 80 78 87 95 87
78 84 83 86 89 84 88 98 95 88 88 89 99 96 91 87 87 86 87 88 88 89 92 90 87 86 84 85 85 74 28 36 43 55 77 79 76 92 94 95 94 95 84
90 84 76 88 91 91 98 95 96 98 99 94 94 88 86 89 87 86 91 90 90 92 91 88 89 87 87 97 90 64 52 44 58 51 57 70 66 88 95 94 93 95 93
97 82 86 92 92 92 92 98 99 98 87 90 89 87 89 89 92 91 89 88 91 90 86 85 88 82 91 95 70 61 46 48 58 63 67 70 76 96 97 96 95 97 98
96 81 90 92 92 92 97 99 97 87 89 90 88 90 91 92 92 90 88 88 88 86 84 86 81 79 89 86 87 68 69 72 70 76 82 87 94 96 96 97 96 96 89
91 89 94 92 92 93 99 96 91 81 88 89 91 92 92 89 87 86 86 85 84 83 84 80 76 76 82 75 78 77 75 74 70 79 86 90 92 92 95 96 94 90 84
91 92 97 96 96 97 99 88 83 90 91 92 91 90 89 88 86 83 83 83 78 77 79 75 74 64 80 61 66 68 69 68 68 73 76 78 90 95 95 89 90 90 93
99 100 100 100 100 98 93 82 84 90 92 94 93 85 75 77 76 81 80 78 52 54 64 62 60 66 77 58 56 56 58 61 67 66 70 70 73 89 90 92 88 86 88
100 100 100 99 98 90 84 84 84 84 86 76 51 42 39 29 24 28 25 28 25 41 56 57 56 57 56 55 53 53 49 59 68 85 93 91 95 93 93 91 88 83 78
100 100 100 96 95 84 82 76 66 63 41 33 38 38 26 20 19 21 27 31 43 48 50 54 56 55 54 53 53 52 50 77 91 92 91 87 84 90 89 82 82 81 81
100 100 100 96 87 79 78 71 59 37 38 44 43 39 26 22 25 33 35 42 46 48 49 56 57 57 57 55 55 54 51 60 80 84 87 84 88 85 86 83 82 80 82
100 99 99 89 82 76 68 58 38 33 42 44 42 38 30 32 32 34 35 35 42 49 52 58 58 58 57 56 55 54 52 44 60 77 75 70 76 79 80 80 81 82 83
100 97 95 84 82 74 58 41 36 37 44 42 37 33 36 34 32 35 36 36 41 49 53 55 59 59 58 58 57 51 49 50 32 28 31 35 65 78 79 80 82 82 82
99 91 91 86 79 70 48 41 49 48 46 38 35 35 35 33 33 35 35 37 37 43 50 56 59 60 62 61 60 55 49 49 49 45 37 34 38 65 77 78 79 80 81
99 90 84 78 65 53 50 53 50 47 45 38 35 34 35 34 33 34 34 36 36 37 44 52 60 61 62 64 61 57 54 51 50 50 48 45 45 38 47 69 72 75 77
85 99 76 67 59 52 49 48 46 45 42 37 35 35 35 34 34 34 33 34 35 36 37 42 51 60 62 62 61 59 58 54 53 55 53 52 49 46 45 43 39 44 66
98 87 88 66 60 48 46 45 44 44 42 38 36 36 36 35 36 36 34 34 35 37 37 37 38 41 44 48 59 60 60 58 56 58 57 58 59 54 53 50 48 46 43
100 96 94 76 61 51 46 44 43 41 40 38 37 37 36 36 38 38 36 35 35 36 35 37 39 40 39 40 40 50 62 63 61 60 60 60 62 62 64 58 54 52 50
100 100 100 98 94 89 77 46 45 44 44 42 38 38 37 38 38 38 35 36 37 36 37 39 39 40 42 40 40 43 43 55 62 66 65 63 63 65 66 66 63 61 60
99 100 99 100 99 93 91 70 52 46 43 43 43 41 37 36 40 39 36 39 42 43 42 41 40 43 46 45 47 54 65 53 50 59 66 67 66 66 66 66 67 66 64
100 99 99 100 97 93 86 88 78 70 52 50 49 47 43 43 43 44 44 40 45 47 43 46 46 47 52 52 47 49 69 64 62 52 61 65 68 63 62 65 67 68 66
100 100 100 99 98 99 96 90 74 73 68 57 50 49 48 47 48 48 52 53 51 54 55 55 52 49 49 53 56 54 51 52 61 55 55 62 56 54 58 60 59 54 62
99 99 100 99 96 94 93 90 76 71 62 64 57 56 54 52 53 52 55 57 59 58 57 61 59 55 50 51 58 57 57 57 57 64 65 56 53 52 51 51 51 51 52
99 100 100 100 96 91 87 85 76 74 79 84 81 64 59 57 56 58 57 59 60 61 63 60 59 55 55 56 57 61 60 59 63 66 78 72 70 56 54 56 54 56 56
Wind_Speed
28 33 28 25 24 23 23 21 19 18 18 17 17 17 15 13 13 12 10 9 9 10 10 9 8 8 8 8 8 7 8 10 11 11 12 13 13 11 11 13 13 12 10
41 36 31 28 26 25 23 21 20 20 18 20 17 15 13 11 11 10 9 9 11 11 11 10 9 8 6 6 5 4 7 9 10 9 8 10 11 11 10 9 10 10 10
43 38 33 30 28 27 26 23 21 19 20 18 15 14 12 11 10 11 11 12 12 12 11 11 10 10 9 7 6 6 7 8 9 6 7 12 10 10 8 8 7 7 7
42 38 35 32 30 28 26 22 23 22 20 16 15 14 13 13 12 12 12 12 12 12 12 11 11 10 11 11 11 10 11 11 11 12 13 12 11 12 10 9 8 8 7
39 38 36 33 30 28 28 26 23 20 17 15 15 15 14 14 13 13 12 12 13 13 12 12 12 12 12 13 12 12 13 13 16 14 11 8 8 10 10 10 11 12 12
39 39 36 33 32 29 27 25 23 20 17 16 15 15 14 14 14 13 12 12 13 13 12 12 12 13 15 14 13 15 17 18 16 15 14 11 10 10 13 14 15 16 17
40 39 36 34 31 29 26 23 22 20 18 17 16 15 15 14 13 13 12 12 12 12 12 12 13 16 17 15 17 22 21 19 18 18 17 15 13 16 17 17 17 16 15
42 39 36 33 31 27 25 23 21 20 19 18 18 16 15 14 13 13 12 12 13 12 12 12 14 19 18 17 19 20 20 20 17 18 19 18 17 16 16 15 16 14 12
41 39 36 33 30 28 25 23 22 21 20 19 18 17 16 15 13 13 12 12 13 12 13 13 17 20 17 19 20 19 17 16 16 15 17 15 17 15 15 13 15 14 14
38 34 35 34 31 27 25 24 23 22 21 20 19 19 18 17 15 13 13 12 15 14 15 18 20 19 20 22 18 15 12 11 12 12 12 11 11 13 14 14 14 12 12
35 34 38 35 31 28 27 25 24 24 22 20 18 17 15 14 14 14 15 15 19 18 18 20 19 18 18 18 16 12 10 11 16 18 17 18 17 16 15 14 13 12 11
32 35 39 37 32 30 29 26 23 22 21 21 20 17 15 15 16 18 18 19 20 17 15 16 16 16 16 16 14 12 14 16 20 18 17 15 12 12 11 9 11 10 10
33 31 38 37 33 31 29 25 22 23 23 21 18 17 15 17 18 18 18 18 16 13 12 14 15 15 14 14 13 13 14 14 13 13 12 11 11 10 10 10 10 10 11
34 37 36 35 32 29 29 26 25 26 23 20 16 15 16 16 16 16 15 15 14 13 14 14 15 16 15 12 10 12 13 13 10 8 7 8 12 12 12 11 11 11 11
31 32 39 35 31 30 29 27 26 25 22 18 18 16 14 14 15 15 14 14 13 13 13 14 14 15 14 12 10 9 11 12 11 10 10 10 12 12 12 11 11 11 11
32 36 35 35 31 30 28 28 25 23 21 19 17 16 14 14 14 14 15 14 13 13 12 12 12 13 12 10 10 9 10 10 9 10 10 10 10 11 11 10 10 10 10
7 36 38 33 30 30 27 25 24 22 21 20 17 17 15 15 15 14 16 16 13 13 12 12 12 12 10 10 9 8 7 7 7 6 6 7 8 8 8 9 9 9 9
10 5 24 31 31 30 27 25 24 23 21 20 17 17 16 15 14 15 15 15 14 13 12 11 11 12 10 9 9 9 6 5 4 3 3 4 4 5 4 5 5 6 7
34 23 16 24 23 26 28 26 24 21 19 20 19 16 15 15 14 14 14 14 14 12 12 10 10 9 9 7 7 6 7 6 5 3 2 1 2 2 3 2 3 4 5
28 29 30 21 24 22 21 21 20 19 17 16 16 16 16 15 14 13 13 13 13 12 11 9 8 7 7 5 5 6 7 7 8 7 5 5 2 3 4 4 3 3 4
20 25 27 22 30 21 16 20 16 15 15 14 14 12 13 13 13 12 12 12 12 10 9 8 7 6 5 3 3 5 6 7 8 9 8 8 7 6 4 4 4 4 5
23 23 28 27 24 31 21 15 13 10 11 10 11 11 10 11 11 10 10 10 9 10 9 7 6 5 3 2 2 2 1 2 7 9 10 9 9 9 8 6 7 6 6
21 26 28 25 27 27 27 20 15 2 7 10 12 12 10 9 8 7 8 9 9 8 8 6 4 4 4 3 2 2 1 2 2 2 10 9 8 8 8 9 9 9 9
17 22 27 29 26 25 25 26 30 19 10 6 10 9 10 10 7 6 7 6 6 6 5 5 5 4 5 5 3 2 2 1 2 3 3 7 8 7 7 7 9 9 9
18 21 24 27 25 24 24 26 27 24 14 4 10 10 9 8 7 8 7 7 7 6 5 5 5 4 4 5 5 4 3 3 2 2 2 3 3 7 8 8 11 10 10
19 22 25 27 27 25 26 27 28 26 23 20 17 14 12 11 10 10 10 9 9 7 6 7 7 6 6 6 7 7 7 3 4 4 1 3 4 7 7 8 11 11 9
Wind_Direction
171 163 164 156 153 150 147 147 146 139 135 130 127 123 111 110 113 115 114 107 96 92 92 93 98 104 109 106 97 98 87 92 96 91 86 79 75 76 74 72 72 69 66
160 161 160 157 153 150 149 148 145 139 134 133 125 131 130 120 120 116 113 110 100 94 91 92 91 91 114 130 138 135 114 101 100 88 90 87 81 74 71 71 68 63 57
156 159 157 156 154 150 147 145 143 141 137 139 142 127 126 123 116 113 110 106 104 100 96 94 92 92 90 94 105 120 126 123 97 75 108 93 76 66 63 65 69 60 56
155 156 156 156 152 148 147 145 144 145 152 154 137 133 130 127 123 119 114 112 108 105 102 99 95 90 89 87 84 87 106 113 103 90 100 95 76 62 64 72 71 57 48
153 157 155 154 154 154 149 151 149 149 145 146 136 133 131 127 124 122 119 115 113 110 106 103 101 97 93 91 86 96 104 105 98 94 100 104 73 72 78 79 78 71 66
155 158 155 159 158 155 152 150 146 147 147 140 137 133 131 128 126 122 118 114 111 109 106 104 101 101 99 85 88 102 107 106 101 93 92 92 87 90 90 82 79 75 71
157 158 160 161 160 157 154 149 147 146 142 139 136 133 131 129 125 122 117 114 108 105 102 102 101 107 99 85 99 112 114 111 100 97 89 84 88 87 79 77 73 69 68
156 158 161 162 162 161 152 150 148 146 142 140 137 134 132 129 126 120 117 115 111 107 104 102 104 110 94 95 109 110 108 104 102 93 86 81 79 74 78 78 75 70 65
155 159 161 162 161 161 155 153 149 144 142 142 139 136 134 130 125 120 119 116 112 110 108 106 110 102 85 105 107 105 101 99 101 95 82 75 74 78 79 79 74 66 59
155 155 155 160 161 161 155 152 151 149 146 144 143 145 145 140 132 123 123 119 111 111 111 112 108 96 88 109 104 99 95 95 105 104 93 88 77 73 73 74 68 63 55
154 158 160 163 163 160 157 156 156 153 154 149 143 141 137 130 125 121 118 117 114 112 112 115 109 98 93 102 94 83 78 99 113 101 93 93 88 84 81 73 66 54 42
158 156 162 165 161 161 163 164 160 155 148 145 142 135 131 129 125 119 115 114 116 119 119 118 117 109 103 103 101 90 85 114 114 101 94 89 82 72 67 64 53 50 50
157 154 164 166 165 169 164 163 158 151 149 149 146 142 134 133 129 130 126 124 124 125 125 119 122 122 116 112 108 96 91 116 123 112 104 95 77 73 70 69 69 65 59
156 161 165 169 169 171 165 164 158 155 155 155 155 152 149 144 141 141 133 131 130 129 128 126 119 124 119 115 109 102 94 95 118 117 107 95 83 81 78 75 74 71 64
152 157 167 170 172 172 167 163 159 159 159 159 158 158 161 155 146 144 135 132 133 133 132 137 130 127 124 119 109 103 100 97 99 104 100 94 90 86 82 79 74 69 63
149 157 166 172 172 173 169 165 163 164 162 161 163 164 166 162 155 152 143 141 140 141 138 143 136 137 129 128 122 113 107 107 105 102 98 95 89 88 84 80 75 69 62
74 158 167 168 168 168 167 167 167 165 167 168 170 169 169 168 162 160 152 150 149 145 149 146 144 147 141 138 134 131 121 119 115 106 102 95 89 86 82 76 74 70 65
280 70 156 167 167 167 172 170 170 171 172 174 172 170 172 173 173 167 160 155 153 155 157 156 152 152 150 153 150 148 148 147 140 123 119 99 83 72 74 68 69 63 63
167 193 166 157 157 165 167 168 168 172 178 178 177 176 176 176 175 173 165 163 160 163 164 160 160 164 160 160 169 176 176 180 184 190 207 162 31 28 18 35 38 41 45
160 168 175 166 153 149 156 159 161 164 170 176 180 179 179 178 179 180 173 168 163 168 162 168 166 160 150 160 171 192 193 202 205 213 228 224 256 321 347 350 341 353 5
165 150 163 165 168 157 157 157 154 162 168 173 177 182 182 179 181 181 177 173 170 165 167 162 162 164 144 144 181 210 213 212 220 223 229 231 244 258 270 306 327 331 348
170 167 160 167 170 164 183 156 143 162 174 178 178 179 185 185 189 186 182 181 178 171 171 174 175 169 152 111 146 104 9 232 224 225 231 234 237 250 261 275 292 305 320
168 173 170 167 177 183 173 177 154 153 182 173 191 181 183 187 194 194 189 186 188 187 184 180 180 194 177 156 126 147 68 243 322 247 221 226 240 255 258 258 274 284 286
174 177 178 178 174 177 173 177 165 172 180 181 183 196 185 186 197 195 207 199 208 206 198 201 208 211 203 182 174 209 188 151 171 330 221 220 235 242 256 274 279 280 275
184 178 178 184 187 184 173 185 164 171 169 155 187 199 200 189 199 212 215 207 214 226 222 234 226 232 228 216 197 194 207 204 206 149 279 314 245 249 264 272 263 264 276
193 187 183 178 176 173 177 180 174 166 168 179 196 199 205 205 202 214 217 219 220 224 248 249 245 248 245 234 221 217 217 191 209 197 195 288 273 279 272 264 274 257 259